Location: Ay?beleni
(36.6500°N, 30.3000°E)
Time: 04:28:15
(UTC+00:00)

Nadezhda 1 Rocket - Pass Details

Date: 14 August 2020
Orbit: 940 x 1006 km, 83.0° (Epoch: 22 September)

Event Time Altitude Azimuth Distance (km) Brightness Sun altitude
Rises 01:27:46 0° 134° (SE) 3,723 7.2 -20.0°
Reaches altitude 10° 01:31:39 10° 111° (ESE) 2,776 6.8 -19.3°
Maximum altitude 01:34:46 14° 81° (E) 2,481 7.0 -18.8°
Drops below altitude 10° 01:37:52 10° 52° (NE) 2,775 7.7 -18.3°
Sets 01:41:43 0° 29° (NNE) 3,720 8.2 -17.7°
